Aurora, OR

11:22 PM PST on December 08, 2016 (GMT -0800)
Aurora State

Weather History for KUAO - December, 2013

Change the Weather History Date:

Wednesday, December 4, 2013

  Actual Average Record
Temperature  
Mean Temperature 30 °F -  
Max Temperature 38 °F - 61 °F (2007)
Min Temperature 23 °F - 23 °F (2013)
Degree Days  
Heating Degree Days 34    
Month to date heating degree days 99  
Since 1 July heating degree days 1217  
Cooling Degree Days 0    
Month to date cooling degree days 0  
Year to date cooling degree days 426  
Moisture  
Dew Point 16 °F    
Average Humidity 59    
Maximum Humidity 81    
Minimum Humidity 37    
Precipitation  
Precipitation 0.00 in - 1.62 in (1968)
Month to date precipitation 1.52  
Year to date precipitation 26.77  
Sea Level Pressure  
Sea Level Pressure 30.31 in    
Wind  
Wind Speed 7 mph (NNE)    
Max Wind Speed 14 mph    
Max Gust Speed 16 mph    
Visibility 10 miles    
Events      
T = Trace of Precipitation, MM = Missing Value Source: NWS Daily Summary

Daily Weather History Graph

Daily Weather History Graph

Search for Another Location

Airport or City:

Trip Planner

Search our weather history database for the weather conditions in past years. The results will help you decide how hot, cold, wet, or windy it might be!

Date:

Astronomy

Dec. 04, 2013 Rise Set
Actual Time 7:33 AM PST 4:29 PM PST
Civil Twilight 7:00 AM PST 5:02 PM PST
Nautical Twilight 6:23 AM PST 5:39 PM PST
Astronomical Twilight 5:47 AM PST 6:15 PM PST
Moon 9:04 AM PST (12/4) 6:48 PM PST (12/4)
Length of Visible Light 10h 02m
Length of Day
8h 55m
Waxing Crescent, 5% of the Moon is Illuminated
Dec 4
Waxing Crescent
Dec 9
First Quarter
Dec 17
Full
Dec 25
Last Quarter
Jan 1
New

Hourly Weather History & Observations

Time (PST) Temp. Windchill Dew Point Humidity Pressure Visibility Wind Dir Wind Speed Gust Speed Precip Events Conditions
12:53 AM 28.0 °F 20.8 °F 19.0 °F 69% 30.30 in 10.0 mi North 6.9 mph - N/A   Clear
1:53 AM 26.1 °F 20.5 °F 19.0 °F 75% 30.30 in 10.0 mi NNE 4.6 mph - N/A   Clear
2:53 AM 24.1 °F 16.0 °F 19.9 °F 84% 30.30 in 10.0 mi North 6.9 mph - N/A   Clear
3:53 AM 24.1 °F 18.2 °F 19.9 °F 84% 30.30 in 10.0 mi North 4.6 mph - N/A   Clear
4:53 AM 25.0 °F - 19.9 °F 81% 30.30 in 10.0 mi Calm Calm - N/A   Clear
5:53 AM 24.1 °F 16.0 °F 19.9 °F 84% 30.31 in 10.0 mi North 6.9 mph - N/A   Clear
6:53 AM 25.0 °F 18.1 °F 19.9 °F 81% 30.32 in 10.0 mi North 5.8 mph - N/A   Clear
7:53 AM 25.0 °F - 19.0 °F 78% 30.33 in 10.0 mi Calm Calm - N/A   Clear
8:53 AM 28.9 °F 23.9 °F 19.0 °F 67% 30.35 in 10.0 mi North 4.6 mph - N/A   Clear
9:53 AM 33.1 °F 26.1 °F 16.0 °F 50% 30.35 in 10.0 mi NNE 8.1 mph - N/A   Clear
10:53 AM 34.0 °F 26.6 °F 16.0 °F 48% 30.35 in 10.0 mi NE 9.2 mph - N/A   Clear
11:53 AM 36.0 °F 29.0 °F 14.0 °F 41% 30.33 in 10.0 mi NNE 9.2 mph - N/A   Clear
12:53 PM 37.0 °F 30.4 °F 14.0 °F 39% 30.32 in 10.0 mi NNE 9.2 mph - N/A   Clear
1:53 PM 37.0 °F 30.4 °F 15.1 °F 41% 30.30 in 10.0 mi NNE 9.2 mph - N/A   Clear
2:53 PM 37.0 °F 30.4 °F 16.0 °F 42% 30.30 in 10.0 mi North 9.2 mph - N/A   Clear
3:53 PM 34.0 °F 26.6 °F 16.0 °F 48% 30.30 in 10.0 mi North 9.2 mph - N/A   Clear
4:53 PM 30.9 °F 24.3 °F 16.0 °F 54% 30.30 in 10.0 mi North 6.9 mph - N/A   Clear
5:53 PM 28.0 °F 20.0 °F 16.0 °F 61% 30.30 in 10.0 mi North 8.1 mph - N/A   Clear
6:53 PM 30.0 °F 23.2 °F 14.0 °F 51% 30.30 in 10.0 mi NE 6.9 mph - N/A   Clear
7:53 PM 27.0 °F 19.5 °F 14.0 °F 58% 30.31 in 10.0 mi North 6.9 mph - N/A   Clear
8:53 PM 28.0 °F 20.8 °F 12.0 °F 51% 30.31 in 10.0 mi NNE 6.9 mph - N/A   Clear
9:53 PM 27.0 °F 18.7 °F 12.0 °F 53% 30.32 in 10.0 mi NNE 8.1 mph - N/A   Clear
10:53 PM 26.1 °F 18.4 °F 12.0 °F 55% 30.32 in 10.0 mi NNE 6.9 mph - N/A   Clear
11:53 PM 23.0 °F 14.7 °F 12.9 °F 65% 30.32 in 10.0 mi North 6.9 mph - N/A   Clear